DW7423 Weather Reports


Display with metric or nautical units.
time (UTC)temp
F
wind
direction
speed
MPH
gust
MPH
rain 1hr
in
rain 24hr
in
rain mn
in
humidity
%
barometer
mb
20260507194549 65 112 6.0 14.0 0.00 0.00 0.00 68 1016.2
20260507193044 65 38 3.0 13.0 0.00 0.00 0.00 68 1016.6
20260507191541 64 41 5.0 11.0 0.00 0.00 0.00 69 1016.6
20260507190041 64 40 2.0 9.0 0.00 0.00 0.00 69 1016.8
20260507184540 65 74 3.0 9.0 0.00 0.00 0.00 68 1017.1
20260507183046 64 84 3.0 9.0 0.00 0.00 0.00 69 1017.4
20260507181541 64 15 4.0 12.0 0.00 0.00 0.00 69 1017.4
20260507180035 63 95 2.0 8.0 0.00 0.00 0.00 68 1017.1
20260507174532 62 57 2.0 12.0 0.00 0.00 0.00 68 1017.0
20260507173031 61 16 5.0 11.0 0.00 0.00 0.00 67 1017.1
20260507171530 61 40 5.0 10.0 0.00 0.00 0.00 66 1017.3
20260507170029 60 59 4.0 9.0 0.00 0.00 0.00 64 1017.9
20260507164529 60 54 4.0 10.0 0.00 0.00 0.00 61 1017.7
20260507163027 60 50 3.0 13.0 0.00 0.00 0.00 58 1018.1
20260507161539 60 62 5.0 14.0 0.00 0.00 0.00 57 1017.8
20260507160040 60 38 5.0 12.0 0.00 0.00 0.00 55 1018.2
20260507154526 60 38 5.0 12.0 0.00 0.00 0.00 52 1018.1
20260507153023 60 88 1.0 10.0 0.00 0.00 0.00 49 1018.1
20260507151523 59 28 6.0 14.0 0.00 0.00 0.00 49 1018.3
20260507150026 60 24 2.0 9.0 0.00 0.00 0.00 46 1018.0
20260507144528 60 28 2.0 11.0 0.00 0.00 0.00 45 1017.9
20260507143020 60 27 2.0 12.0 0.00 0.00 0.00 44 1018.0
20260507141521 60 41 1.0 14.0 0.00 0.00 0.00 42 1018.5
20260507140017 59 355 5.0 14.0 0.00 0.00 0.00 42 1017.6
20260507134515 59 46 2.0 9.0 0.00 0.00 0.00 39 1017.6
20260507133013 0 0.0 0.0 0.00 0.00 0.00 1017.4
20260507131505 0 0.0 0.0 0.00 0.00 0.00 1017.0
20260507130001 0 0.0 0.0 0.00 0.00 0.00 1017.1
20260507124634 0 0.0 0.0 0.00 0.00 0.00 1017.2
20260507123054 0 0.0 0.0 0.00 0.00 0.00 1017.1
20260507121548 0 0.0 0.0 0.00 0.00 0.00 1017.0
20260507120144 0 0.0 0.0 0.00 0.00 0.00 1016.5
20260507114603 0 0.0 0.0 0.00 0.00 0.00 1016.2
20260507113039 59 84 5.0 12.0 0.00 0.00 0.00 43 1016.4
20260507111536 59 43 5.0 11.0 0.00 0.00 0.00 44 1016.3
20260507110042 59 46 2.0 11.0 0.00 0.00 0.00 44 1016.1
20260507104531 60 59 4.0 13.0 0.00 0.00 0.00 45 1016.0
20260507103029 60 24 2.0 11.0 0.00 0.00 0.00 46 1016.0
20260507101527 60 65 4.0 11.0 0.00 0.00 0.00 48 1015.5
20260507100025 60 28 1.0 11.0 0.00 0.00 0.00 51 1015.6
20260507094520 60 40 2.0 9.0 0.00 0.00 0.00 52 1015.6
20260507093025 61 360 1.0 8.0 0.00 0.00 0.00 54 1015.2
20260507091526 61 51 2.0 8.0 0.00 0.00 0.00 55 1015.1
20260507090015 61 24 2.0 8.0 0.00 0.00 0.00 55 1015.1
20260507084519 61 34 0.0 6.0 0.00 0.00 0.00 56 1015.1
20260507083013 61 40 2.0 5.0 0.00 0.00 0.00 57 1015.1
20260507081512 61 37 2.0 5.0 0.00 0.00 0.00 58 1015.1
20260507080011 61 85 4.0 7.0 0.00 0.00 0.00 59 1014.6
20260507074509 61 24 2.0 9.0 0.00 0.00 0.00 61 1014.8
20260507073008 61 46 2.0 9.0 0.00 0.00 0.00 62 1014.4
20260507071510 61 57 1.0 10.0 0.00 0.00 0.00 62 1014.6
20260507070010 61 49 5.0 10.0 0.00 0.00 0.00 62 1014.5
20260507064504 62 30 3.0 6.0 0.00 0.00 0.00 61 1014.6
20260507063011 62 68 1.0 10.0 0.00 0.00 0.00 62 1014.7
20260507061502 62 32 5.0 9.0 0.00 0.00 0.00 62 1013.7
20260507054557 62 20 1.0 9.0 0.00 0.00 0.00 61 1014.3
20260507053057 62 47 4.0 10.0 0.00 0.00 0.00 61 1014.7
20260507051600 62 26 2.0 10.0 0.00 0.00 0.00 60 1014.5
20260507050052 62 51 3.0 11.0 0.00 0.00 0.00 59 1014.3
20260507044546 62 38 4.0 13.0 0.00 0.00 0.00 59 1014.3
20260507043042 62 55 3.0 8.0 0.00 0.00 0.00 60 1014.3
20260507041538 63 22 4.0 12.0 0.00 0.00 0.00 60 1014.3
20260507040034 63 23 4.0 10.0 0.00 0.00 0.00 59 1013.9
20260507034535 63 22 4.0 9.0 0.00 0.00 0.00 59 1014.1
20260507033025 63 30 4.0 11.0 0.00 0.00 0.00 59 1014.0
20260507031520 63 45 2.0 11.0 0.00 0.00 0.00 59 1013.8
20260507030019 63 351 1.0 6.0 0.00 0.00 0.00 58 1013.8
20260507024516 63 38 2.0 9.0 0.00 0.00 0.00 58 1013.2
20260507023006 63 36 1.0 7.0 0.00 0.00 0.00 59 1013.5
20260507021502 63 39 1.0 10.0 0.00 0.00 0.00 60 1013.1
20260507020059 63 44 0.0 2.0 0.00 0.00 0.00 61 1012.8
20260507014556 63 38 1.0 5.0 0.00 0.00 0.00 62 1012.8
20260507013101 63 47 1.0 10.0 0.00 0.00 0.00 63 1012.2
20260507011544 64 38 0.0 5.0 0.00 0.00 0.00 63 1012.3
20260507010052 64 46 0.0 6.0 0.00 0.00 0.00 64 1012.0
20260507004535 64 10 1.0 7.0 0.00 0.00 0.00 64 1011.8
20260507003031 64 30 2.0 11.0 0.00 0.00 0.00 65 1011.7
20260507001530 64 42 1.0 9.0 0.00 0.00 0.00 65 1011.6
20260507000022 64 35 2.0 10.0 0.00 0.00 0.00 66 1011.4
20260506234522 64 38 4.0 12.0 0.00 0.00 0.00 66 1011.3
20260506233014 64 17 4.0 13.0 0.00 0.00 0.00 67 1011.0
20260506231507 64 319 2.0 9.0 0.00 0.00 0.00 67 1011.0
20260506230003 65 22 2.0 8.0 0.00 0.00 0.00 68 1011.1
20260506224559 65 18 3.0 10.0 0.00 0.00 0.00 68 1010.9
20260506223054 66 36 2.0 11.0 0.00 0.00 0.00 69 1010.8
20260506221555 67 30 2.0 11.0 0.00 0.00 0.00 69 1010.7
20260506220044 68 319 1.0 9.0 0.00 0.00 0.00 69 1010.8
20260506214540 70 259 2.0 6.0 0.00 0.00 0.00 68 1010.7
20260506213036 70 318 2.0 11.0 0.00 0.00 0.00 68 1010.3
20260506211531 71 61 4.0 12.0 0.00 0.00 0.00 68 1010.4
20260506210033 72 335 2.0 16.0 0.00 0.00 0.00 68 1010.2
20260506204524 74 312 2.0 11.0 0.00 0.00 0.00 67 1010.4
20260506203021 73 290 4.0 9.0 0.00 0.00 0.00 67 1010.5
20260506201524 73 297 3.0 11.0 0.00 0.00 0.00 67 1010.5
20260506200033 73 296 2.0 13.0 0.00 0.00 0.00 66 1010.2